SIRION PATHFINDER-2

Last updated on Thu Nov 21 2024 00:03:40 GMT+0000 (Coordinated Universal Time)

1 43759U 18099B 24324.68746665 .00008078 00000+0 55512-3 0 9991 2 43759 97.5091 16.6107 0011773 114.8067 245.4386 15.06144016325884
UTC large
Height (km)
Speed (km/s)
/
Latitude / Longitude
Inclination (degrees)
Orbital Period (minutes)
Azimuth
Elevation
Range (km)
Doppler Factor

Next 0 passes for location: London (51.5072 / 0.1276)

Sorry there are no passes over London.